TimeICT,TemperatureF,Dew PointF,Humidity,Sea Level PressureIn,VisibilityMPH,Wind Direction,Wind SpeedMPH,Gust SpeedMPH,PrecipitationIn,Events,Conditions,WindDirDegrees,DateUTC
12:00 AM,78.8,71.6,78,29.77,2.5,SSW,3.5,-,N/A,,Scattered Clouds,200,2014-02-06 17:00:00
12:30 AM,80.6,73.4,79,29.77,2.5,SSW,3.5,-,N/A,,Scattered Clouds,200,2014-02-06 17:30:00
1:00 AM,80,74,77,29.76,5,South,4.6,,,,Mist,170,2014-02-06 18:00:00
1:00 AM,78.8,73.4,83,29.77,2.5,South,4.6,-,N/A,,Scattered Clouds,190,2014-02-06 18:00:00
2:00 AM,78.8,73.4,83,29.74,2.5,SSW,3.5,-,N/A,,Scattered Clouds,210,2014-02-06 19:00:00
2:30 AM,78.8,71.6,78,29.74,2.5,SW,6.9,-,N/A,,Scattered Clouds,230,2014-02-06 19:30:00
3:00 AM,78.8,73.4,83,29.74,2.5,SW,6.9,-,N/A,,Mostly Cloudy,230,2014-02-06 20:00:00
3:30 AM,78.8,73.4,83,29.74,2.5,WSW,6.9,-,N/A,,Mostly Cloudy,250,2014-02-06 20:30:00
4:00 AM,79,73,78,29.74,5,SSE,2.3,,,,Mist,150,2014-02-06 21:00:00
4:00 AM,78.8,73.4,83,29.74,2.5,SW,4.6,-,N/A,,Mostly Cloudy,220,2014-02-06 21:00:00
4:30 AM,78.8,73.4,83,29.74,2.5,SW,4.6,-,N/A,,Mostly Cloudy,230,2014-02-06 21:30:00
5:30 AM,78.8,73.4,83,29.74,3.1,SW,6.9,-,N/A,,Mostly Cloudy,220,2014-02-06 22:30:00
6:00 AM,78.8,73.4,83,29.77,3.1,SSW,8.1,-,N/A,,Scattered Clouds,210,2014-02-06 23:00:00
6:30 AM,78.8,71.6,78,29.77,3.1,SSW,8.1,-,N/A,,Mostly Cloudy,210,2014-02-06 23:30:00
7:00 AM,80,73,74,29.79,4,South,3.5,,,,Mist,180,2014-02-07 00:00:00
7:00 AM,78.8,73.4,83,29.77,3.1,SW,5.8,-,N/A,,Mostly Cloudy,220,2014-02-07 00:00:00
7:30 AM,80.6,71.6,74,29.80,3.7,SSW,5.8,-,N/A,,Mostly Cloudy,210,2014-02-07 00:30:00
8:00 AM,80.6,71.6,74,29.80,3.7,SSW,6.9,-,N/A,,Mostly Cloudy,210,2014-02-07 01:00:00
8:30 AM,82.4,71.6,70,29.83,4.3,SW,6.9,-,N/A,,Mostly Cloudy,220,2014-02-07 01:30:00
9:00 AM,82.4,71.6,70,29.83,4.3,SW,6.9,-,N/A,,Mostly Cloudy,220,2014-02-07 02:00:00
9:30 AM,84.2,71.6,66,29.83,4.3,SSW,9.2,-,N/A,,Mostly Cloudy,210,2014-02-07 02:30:00
10:00 AM,84,73,62,29.84,4,SSE,3.5,,,,Mist,150,2014-02-07 03:00:00
10:00 AM,84.2,71.6,66,29.83,5.0,SSW,9.2,-,N/A,,Scattered Clouds,210,2014-02-07 03:00:00
10:30 AM,84.2,71.6,66,29.83,5.0,SSW,9.2,-,N/A,,Scattered Clouds,210,2014-02-07 03:30:00
11:00 AM,84.2,71.6,66,29.83,5.0,SSW,9.2,-,N/A,,Scattered Clouds,200,2014-02-07 04:00:00
11:30 AM,86.0,73.4,66,29.83,5.0,SW,9.2,-,N/A,,Scattered Clouds,220,2014-02-07 04:30:00
12:00 PM,86.0,71.6,62,29.80,5.0,SSW,9.2,-,N/A,,Scattered Clouds,210,2014-02-07 05:00:00
12:30 PM,86.0,71.6,62,29.80,5.0,SSW,6.9,-,N/A,,Scattered Clouds,210,2014-02-07 05:30:00
1:00 PM,84,72,60,29.79,4,South,4.6,,,,Mist,190,2014-02-07 06:00:00
1:00 PM,87.8,73.4,62,29.77,5.6,SW,9.2,-,N/A,,Scattered Clouds,220,2014-02-07 06:00:00
1:30 PM,86.0,71.6,62,29.77,5.6,SW,9.2,-,N/A,,Scattered Clouds,220,2014-02-07 06:30:00
2:00 PM,86.0,71.6,62,29.74,5.6,SW,9.2,-,N/A,,Scattered Clouds,220,2014-02-07 07:00:00
2:30 PM,86.0,73.4,66,29.74,5.6,SW,9.2,-,N/A,,Scattered Clouds,230,2014-02-07 07:30:00
3:00 PM,86.0,71.6,62,29.74,5.6,SW,9.2,-,N/A,,Scattered Clouds,220,2014-02-07 08:00:00
3:30 PM,84.2,73.4,70,29.74,5.6,SSW,9.2,-,N/A,,Scattered Clouds,210,2014-02-07 08:30:00
4:00 PM,83,73,65,29.74,4,SSE,4.6,,,,Mist,160,2014-02-07 09:00:00
4:00 PM,84.2,71.6,66,29.71,5.6,SW,6.9,-,N/A,,Scattered Clouds,220,2014-02-07 09:00:00
4:30 PM,84.2,71.6,66,29.71,5.6,SSW,9.2,-,N/A,,Scattered Clouds,210,2014-02-07 09:30:00
5:00 PM,82.4,71.6,70,29.71,5.6,SW,9.2,-,N/A,,Scattered Clouds,220,2014-02-07 10:00:00
5:30 PM,82.4,71.6,70,29.74,5.6,SW,9.2,-,N/A,,Scattered Clouds,220,2014-02-07 10:30:00
6:00 PM,82.4,71.6,70,29.74,5.0,SW,6.9,-,N/A,,Scattered Clouds,220,2014-02-07 11:00:00
6:30 PM,80.6,71.6,74,29.74,4.3,SSW,6.9,-,N/A,,Mostly Cloudy,210,2014-02-07 11:30:00
7:00 PM,80,73,73,29.75,4,South,2.3,,,,Mist,180,2014-02-07 12:00:00
7:00 PM,80.6,71.6,74,29.74,4.3,SW,5.8,-,N/A,,Mostly Cloudy,220,2014-02-07 12:00:00
7:30 PM,78.8,71.6,78,29.74,3.7,SW,4.6,-,N/A,,Mostly Cloudy,220,2014-02-07 12:30:00
8:30 PM,78.8,71.6,78,29.77,3.7,SSW,3.5,-,N/A,,Scattered Clouds,210,2014-02-07 13:30:00
9:30 PM,78.8,71.6,78,29.77,3.7,SSW,4.6,-,N/A,,Scattered Clouds,200,2014-02-07 14:30:00
10:00 PM,80,73,74,29.78,4,South,5.8,,,,Mist,170,2014-02-07 15:00:00
10:00 PM,78.8,71.6,78,29.77,3.7,SW,4.6,-,N/A,,Scattered Clouds,220,2014-02-07 15:00:00
10:30 PM,78.8,71.6,78,29.77,3.7,SSW,6.9,-,N/A,,Scattered Clouds,200,2014-02-07 15:30:00
11:00 PM,78.8,71.6,78,29.77,3.7,SW,4.6,-,N/A,,Scattered Clouds,220,2014-02-07 16:00:00
11:30 PM,78.8,71.6,78,29.77,3.7,SW,4.6,-,N/A,,Scattered Clouds,220,2014-02-07 16:30:00